This is the latest recevied weather packets stored in our database for station/object CE3UOB-10. If no packets are shown the sender has not sent any weather packets the latest 1 day(s).
| Time | Temp. | Humidity | Pressure | Rain* | Wind** | Luminosity | Snow |
|---|---|---|---|---|---|---|---|
| 1778107400 | 14.44° C | 88% | 999.2 hPa | - | - | - | - |
| 1778098111 | 14.44° C | 95% | 997.3 hPa | - | - | - | - |
| 1778090897 | 15° C | 89% | 997.2 hPa | - | - | - | - |
| 1778089097 | 15° C | 89% | 997.4 hPa | - | - | - | - |
| 1778083704 | 14.44° C | 86% | 997 hPa | - | - | - | - |
| 1778081904 | 14.44° C | 86% | 996.8 hPa | - | - | - | - |
| 1778080104 | 14.44° C | 84% | 996.2 hPa | - | - | - | - |
| 1778080098 | 14.44° C | 84% | 996.2 hPa | - | - | - | - |
| 1778076498 | 15° C | 70% | 995.2 hPa | - | - | - | - |
| 1778074704 | 15° C | 67% | 995 hPa | - | - | - | - |
| 1778072904 | 15° C | 68% | 995.5 hPa | - | - | - | - |
| 1778072897 | 15° C | 68% | 995.5 hPa | - | - | - | - |
| 1778071104 | 13.89° C | 66% | 995.1 hPa | - | - | - | - |
| 1778069304 | 11.67° C | 72% | 995 hPa | - | - | - | - |
| 1778069297 | 11.67° C | 72% | 995 hPa | - | - | - | - |
| 1778067504 | 10.56° C | 71% | 994.8 hPa | - | - | - | - |
| 1778067497 | 10.56° C | 71% | 994.8 hPa | - | - | - | - |
| 1778065697 | 11.11° C | 70% | 994.9 hPa | - | - | - | - |
| 1778063905 | 11.11° C | 71% | 994.7 hPa | - | - | - | - |
| 1778062103 | 11.67° C | 73% | 994.3 hPa | - | - | - | - |
| 1778062097 | 11.67° C | 73% | 994.3 hPa | - | - | - | - |
| 1778060297 | 12.22° C | 69% | 994.3 hPa | - | - | - | - |
| 1778058497 | 11.11° C | 70% | 994.1 hPa | - | - | - | - |
| 1778056702 | 12.22° C | 67% | 993.7 hPa | - | - | - | - |
| 1778056697 | 12.22° C | 67% | 993.7 hPa | - | - | - | - |
* Rain since midnight (hover to see other rain measurements)
** Current wind speed in m/s (hover to see current wind gust speed)